Mountain Home, AR

5:05 AM CDT on October 15, 2019 (GMT -0500)
Baxter County Regional

Weather History for KBPK - August, 2019

Change the Weather History Date:

Sunday, August 25, 2019

  Actual Average (KFLP) Record (KFLP)
Temperature  
Mean Temperature 74 °F -  
Max Temperature 82 °F 88 °F 100 °F (1998)
Min Temperature 66 °F 65 °F 51 °F (2015)
Cooling Degree Days 8    
Growing Degree Days 24 (Base 50)    
Moisture  
Dew Point 70 °F    
Average Humidity 93    
Maximum Humidity 100    
Minimum Humidity 79    
Precipitation  
Precipitation 0.03 in - - ()
Sea Level Pressure  
Sea Level Pressure 29.91 in    
Wind  
Wind Speed 5 mph (SE)    
Max Wind Speed 9 mph    
Max Gust Speed -    
Visibility 10 miles    
Events Rain    
Averages and records for this station are not official NWS values.
T = Trace of Precipitation, MM = Missing Value Source: NWS Daily Summary

Daily Weather History Graph

Daily Weather History Graph

Search for Another Location

Airport or City:

Astronomy

Aug. 25, 2019 Rise Set
Actual Time 6:35 AM CDT 7:47 PM CDT
Civil Twilight 6:08 AM CDT 8:14 PM CDT
Nautical Twilight 5:37 AM CDT 8:46 PM CDT
Astronomical Twilight 5:03 AM CDT 9:19 PM CDT
Moon 1:15 AM CDT (8/25) 4:03 PM CDT (8/25)
Length of Visible Light 14h 05m
Length of Day
13h 12m
Waning Crescent, 29% of the Moon is Illuminated
Aug 25
Waning Crescent
Aug 30
New
Sep 5
First Quarter
Sep 13
Full
Sep 21
Last Quarter

Hourly Weather History & Observations

Time (CDT) Temp. Heat Index Dew Point Humidity Pressure Visibility Wind Dir Wind Speed Gust Speed Precip Events Conditions
12:53 AM 68.0 °F - 66.9 °F 96% 30.01 in 10.0 mi East 4.6 mph - N/A   Overcast
1:53 AM 66.9 °F - 66.9 °F 100% 29.98 in 8.0 mi East 3.5 mph - 0.03 in Rain Light Rain
2:31 AM 66.9 °F - 66.9 °F 100% 29.99 in 10.0 mi SE 4.6 mph - 0.00 in   Overcast
2:53 AM 68.0 °F - 68.0 °F 100% 29.96 in 10.0 mi SE 4.6 mph - 0.00 in   Overcast
3:53 AM 68.0 °F - 66.9 °F 96% 29.95 in 10.0 mi East 3.5 mph - N/A   Overcast
4:15 AM 66.9 °F - 66.9 °F 100% 29.97 in 10.0 mi Calm Calm - N/A   Overcast
4:30 AM 66.9 °F - 66.9 °F 100% 29.97 in 7.0 mi Calm Calm - N/A   Overcast
4:46 AM 66.9 °F - 66.9 °F 100% 29.96 in 10.0 mi East 3.5 mph - N/A   Overcast
4:53 AM 66.9 °F - 66.9 °F 100% 29.94 in 10.0 mi Calm Calm - N/A   Overcast
5:53 AM 68.0 °F - 66.9 °F 96% 29.94 in 10.0 mi ESE 4.6 mph - N/A   Overcast
6:00 AM 68.0 °F - 66.9 °F 96% 29.96 in 10.0 mi ESE 4.6 mph - N/A   Overcast
6:15 AM 68.0 °F - 66.9 °F 96% 29.96 in 10.0 mi East 3.5 mph - N/A   Overcast
6:53 AM 68.0 °F - 66.9 °F 96% 29.95 in 10.0 mi ESE 3.5 mph - N/A   Overcast
7:02 AM 68.0 °F - 66.9 °F 96% 29.97 in 10.0 mi ESE 3.5 mph - N/A   Overcast
7:53 AM 68.0 °F - 66.9 °F 96% 29.95 in 10.0 mi SE 4.6 mph - N/A   Overcast
8:53 AM 68.0 °F - 68.0 °F 100% 29.94 in 5.0 mi SE 8.1 mph - N/A   Overcast
9:24 AM 69.1 °F - 69.1 °F 100% 29.96 in 9.0 mi South 5.8 mph - N/A   Overcast
9:48 AM 69.8 °F - 69.8 °F 100% 29.96 in 10.0 mi SSE 4.6 mph - N/A   Overcast
9:53 AM 70.0 °F - 69.1 °F 97% 29.94 in 10.0 mi SSE 6.9 mph - N/A   Overcast
10:53 AM 72.0 °F - 70.0 °F 93% 29.94 in 10.0 mi SSW 5.8 mph - N/A   Overcast
11:53 AM 75.0 °F - 71.1 °F 87% 29.92 in 10.0 mi SSE 6.9 mph - N/A   Overcast
12:12 PM 77.0 °F - 72.0 °F 84% 29.94 in 10.0 mi South 9.2 mph - N/A   Overcast
12:34 PM 77.0 °F - 72.0 °F 84% 29.93 in 10.0 mi South 8.1 mph - N/A   Overcast
12:53 PM 77.0 °F - 72.0 °F 84% 29.90 in 10.0 mi SSE 5.8 mph - N/A   Overcast
1:04 PM 77.0 °F - 72.0 °F 84% 29.93 in 10.0 mi SSE 4.6 mph - N/A   Overcast
1:12 PM 75.9 °F - 72.0 °F 87% 29.93 in 10.0 mi South 4.6 mph - N/A   Overcast
1:53 PM 79.0 °F - 73.0 °F 82% 29.88 in 10.0 mi South 5.8 mph - N/A   Mostly Cloudy
2:20 PM 80.1 °F 84.5 °F 73.9 °F 81% 29.90 in 10.0 mi South 3.5 mph - N/A   Mostly Cloudy
2:53 PM 79.0 °F - 73.0 °F 82% 29.85 in 10.0 mi SE 3.5 mph - N/A   Overcast
3:53 PM 81.0 °F 86.2 °F 73.9 °F 79% 29.81 in 10.0 mi East 5.8 mph - 0.00 in   Partly Cloudy
4:31 PM 80.1 °F 85.1 °F 75.0 °F 85% 29.83 in 10.0 mi ESE 6.9 mph - N/A   Mostly Cloudy
4:51 PM 80.6 °F 86.2 °F 75.2 °F 84% 29.83 in 10.0 mi ESE 8.1 mph - N/A   Mostly Cloudy
4:53 PM 80.1 °F 84.5 °F 73.9 °F 81% 29.81 in 10.0 mi ESE 6.9 mph - N/A   Mostly Cloudy
5:53 PM 79.0 °F - 72.0 °F 79% 29.80 in 10.0 mi SSE 6.9 mph - N/A   Clear
6:53 PM 77.0 °F - 73.0 °F 88% 29.80 in 10.0 mi SSE 5.8 mph - N/A   Clear
7:21 PM 75.9 °F - 73.0 °F 91% 29.83 in 10.0 mi SSE 4.6 mph - N/A   Mostly Cloudy
7:53 PM 75.0 °F - 73.0 °F 94% 29.81 in 10.0 mi SSE 5.8 mph - 0.00 in   Partly Cloudy
8:53 PM 73.9 °F - 73.0 °F 97% 29.83 in 10.0 mi SSE 5.8 mph - 0.00 in   Clear
9:04 PM 73.9 °F - 73.0 °F 97% 29.85 in 10.0 mi SSE 6.9 mph - N/A   Scattered Clouds
10:31 PM 72.0 °F - 72.0 °F 100% 29.86 in 10.0 mi SSE 3.5 mph - N/A   Mostly Cloudy
10:53 PM 72.0 °F - 72.0 °F 100% 29.84 in 10.0 mi SSE 4.6 mph - N/A   Overcast
11:13 PM 72.0 °F - 72.0 °F 100% 29.86 in 10.0 mi South 4.6 mph - N/A   Overcast
11:53 PM 72.0 °F - 72.0 °F 100% 29.82 in 10.0 mi South 4.6 mph - N/A   Mostly Cloudy